Regional Weather Roundup
Issued by NWS

Home | Current Version | Previous Version | Graphics & Text | Print | Product List | Glossary On
Versions: 1 2 3 4 5 6 7 8 9 10 11 12 13 14 15 16 17 18 19 20 21 22 23 24 25 26 27
000
ASUS45 KBOU 240707
RWRCO

WEATHER ROUNDUP FOR COLORADO
NATIONAL WEATHER SERVICE DENVER/BOULDER CO
100 AM MDT FRI OCT 24 2014

NOTE: "FAIR" INDICATES FEW OR NO CLOUDS BELOW 12000 FEET WITH NO
SIGNIFICANT WEATHER AND/OR OBSTRUCTIONS TO VISIBILITY.

COZ001>005-013-030-031-240800-
...NORTHWEST COLORADO...

CITY           SKY/WX    TMP DP  RH WIND       PRES   REMARKS
CRAIG          MOCLDY    39  32  76 E3        30.26R
HAYDEN         MOCLDY    41  28  60 SE3       30.27R
MEEKER         PTCLDY    45  35  68 VRB5      30.27R
MOUNT WERNER   NOT AVBL
STEAMBOAT SPGS MOCLDY    38  31  76 CALM      30.29R
WALDEN         CLOUDY    46  21  36 SE8       30.30R
$$

COZ006>008-011-240800-
...WEST CENTRAL VALLEYS...

CITY           SKY/WX    TMP DP  RH WIND       PRES   REMARKS
GRAND JUNCTION CLEAR     49  36  61 SE10      30.22R
MONTROSE       CLEAR     45  34  65 SE8       30.30R
EAGLE          NOT AVBL
RIFLE          PTCLDY    42  37  82 CALM      30.27R
DELTA          CLEAR     49  35  59 E8        30.27S
NUCLA          CLEAR     46  32  57 E12       30.33R
$$

COZ017>023-064>068-240800-
...SOUTHWEST COLORADO...

CITY           SKY/WX    TMP DP  RH WIND       PRES   REMARKS
DURANGO        PTCLDY    42  35  76 N5        30.36R
CORTEZ         CLEAR     36  30  79 E5        30.32R
PAGOSA SPRINGS PTCLDY    39  36  88 CALM      30.41S
TELLURIDE      CLEAR     42  29  61 SE7       30.49S
WOLF CREEK PAS CLEAR     34  32  93 SW14        N/A  WCI  24
$$

COZ009-010-012-014-032>034-037-058>063-240800-
...CENTRAL COLORADO...

CITY           SKY/WX    TMP DP  RH WIND       PRES   REMARKS
ASPEN          CLEAR     38  27  64 S8        30.37R
BUENA VISTA    CLEAR     35  27  73 W6        30.38S WCI  30
COPPER MTN     CLEAR     41  14  33 SW9G16    30.55S
BERTHOUD PASS  FAIR      32  32 100 NW29G43   30.51R WCI  18
COTTONWOOD PAS CLEAR     50  10  20 W6        30.46S
GUNNISON       PTCLDY    34  25  69 CALM      30.44S
KREMMLING      PTCLDY    36  30  80 CALM        N/A
LEADVILLE      CLEAR     36  22  56 CALM      30.45R
MONARCH PASS   CLEAR     34  23  64 SW25      30.67S WCI  21
SALIDA         CLEAR     51  29  43 W10       30.42S
SUNLIGHT       PTCLDY    37  28  70 CALM      30.51S
WILKERSON PASS NOT AVBL
$$

COZ069>075-240800-
...SAN LUIS VALLEY/SANGRE DE CRISTO MOUNTAINS...

CITY           SKY/WX    TMP DP  RH WIND       PRES   REMARKS
ALAMOSA        PTCLDY    34  27  75 SW3       30.37R
LA VETA PASS   CLEAR     45  28  53 S15G25    30.44S
SAGUACHE       CLEAR     41  28  60 N9        30.40S
$$

COZ035-036-038>040-240800-
...NORTHERN COLORADO FRONT RANGE...

CITY           SKY/WX    TMP DP  RH WIND       PRES   REMARKS
DENVER INTL AP CLOUDY    58  30  34 S13       30.13S
DMNS CITY PARK   N/A     58  29  33 SW5       30.12S
AURORA         MOCLDY    56  31  38 S13       30.15S
FRONT RANGE AP CLOUDY    59  32  36 S16       30.14S
ERIE MUNI ARPT CLOUDY    56  31  38 S3        30.10S
BOULDER MUN AP CLOUDY    64  27  24 CALM      30.11R
CENTENNIAL     CLOUDY    57  29  34 S12       30.16S
BROOMFIELD     CLOUDY    64  23  20 SW3       30.15R
FORT COLLINS   CLOUDY    50  36  57 N5        30.12R
LONGMONT       CLOUDY    59  32  36 W6        30.11S
$$

COZ041-046-047-076>085-087-088-240800-
...PIKES PEAK/PALMER DIVIDE AND SOUTHERN FOOTHILLS...

CITY           SKY/WX    TMP DP  RH WIND       PRES   REMARKS
COLO. SPRINGS  MOCLDY    45  34  65 N9        30.22F
A. F. ACADEMY  CLOUDY    44  32  63 N10       30.22F
ELLICOTT       NOT AVBL
FALCON         MOCLDY    47  31  53 N5        30.26S
FORT CARSON    MOCLDY    49  33  53 NW6       30.19F
LIMON          PTCLDY    50  34  54 VRB3      30.17R
MONUMENT HILL  CLOUDY    46  30  53 S8        30.23S
TRINIDAD       CLEAR     55  35  47 W16       30.20F
$$

COZ042>045-048>051-090-091-240800-
...NORTHEAST COLORADO...

CITY           SKY/WX    TMP DP  RH WIND       PRES   REMARKS
GREELEY ARPT   CLOUDY    46  34  61 CALM      30.11R
AKRON          PTCLDY    56  36  47 SW13      30.09S
BURLINGTON     CLEAR     54  48  80 SW10      30.10S
WRAY           MOCLDY    52  40  62 SW10      30.05F
STERLING       PTCLDY    46  37  71 CALM      30.06S
HOLYOKE        MOCLDY    52  37  58 W7        30.04S
FORT MORGAN    PTCLDY    48  33  56 W7        30.09F
$$

COZ086-089-092>099-240800-
...SOUTHEAST COLORADO...

CITY           SKY/WX    TMP DP  RH WIND       PRES   REMARKS
PUEBLO         PTCLDY    46  34  62 W5        30.15S
LA JUNTA       CLEAR     48  38  68 W9        30.12R
LAMAR          CLEAR     48  40  73 CALM      30.10R
SPRINGFIELD      N/A     50  47  89 W7        30.14S
$$



USA.gov is the U.S. government's official web portal to all federal, state and local government web resources and services.